GW5129 Weather Reports


time (UTC)temp
C
wind
direction
speed
KPH
gust
KPH
rain 1hr
cm
rain 24hr
cm
rain mn
cm
humidity
%
barometer
mb
20260508073049 4 141 3.2 6.4 0.00 0.00 0.00 90 1016.3
20260508072545 4 114 4.8 6.4 0.00 0.00 0.00 90 1016.5
20260508072042 4 101 4.8 9.7 0.00 0.00 0.00 90 1016.4
20260508071540 4 107 4.8 4.8 0.00 0.00 0.00 90 1016.5
20260508071038 4 124 3.2 9.7 0.00 0.00 0.00 90 1016.5
20260508070535 4 112 4.8 6.4 0.00 0.00 0.00 89 1016.4
20260508070034 4 108 3.2 4.8 0.00 0.00 0.00 89 1016.6
20260508065531 4 111 4.8 4.8 0.00 0.00 0.00 89 1016.6
20260508065029 4 106 3.2 4.8 0.00 0.00 0.00 89 1016.6
20260508064526 4 105 1.6 6.4 0.00 0.00 0.00 89 1016.5
20260508064024 4 108 3.2 6.4 0.00 0.00 0.00 89 1016.4
20260508063521 4 110 3.2 9.7 0.00 0.00 0.00 88 1016.3
20260508063019 4 112 3.2 4.8 0.00 0.00 0.00 88 1016.4
20260508062516 4 100 1.6 3.2 0.00 0.00 0.00 88 1016.5
20260508062013 4 102 3.2 4.8 0.00 0.00 0.00 88 1016.4
20260508061511 4 115 3.2 6.4 0.00 0.00 0.00 88 1016.4
20260508061007 5 96 4.8 9.7 0.00 0.00 0.00 88 1016.5
20260508060504 5 106 6.4 9.7 0.00 0.00 0.00 87 1016.7
20260508060001 5 112 4.8 4.8 0.00 0.00 0.00 87 1016.7
20260508055457 5 155 3.2 4.8 0.00 0.00 0.00 87 1016.7
20260508054953 5 152 3.2 4.8 0.00 0.00 0.00 87 1016.8
20260508054450 5 116 4.8 6.4 0.00 0.00 0.00 87 1016.8
20260508053947 5 114 3.2 4.8 0.00 0.00 0.00 87 1016.9
20260508053444 4 121 4.8 4.8 0.00 0.00 0.00 87 1016.7
20260508052942 4 35 0.0 1.6 0.00 0.00 0.00 86 1016.9
20260508052439 4 34 1.6 1.6 0.00 0.00 0.00 86 1017.0
20260508051935 4 17 0.0 0.0 0.00 0.00 0.00 86 1017.0
20260508051431 3 17 0.0 0.0 0.00 0.00 0.00 85 1017.0
20260508050928 3 17 0.0 0.0 0.00 0.00 0.00 85 1016.7
20260508050424 4 17 0.0 0.0 0.00 0.00 0.00 85 1016.9
20260508045921 3 17 0.0 0.0 0.00 0.00 0.00 84 1016.8
20260508045419 4 17 0.0 0.0 0.00 0.00 0.00 84 1016.8
20260508044916 4 17 0.0 0.0 0.00 0.00 0.00 84 1016.8
20260508044413 4 17 0.0 0.0 0.00 0.00 0.00 84 1016.7
20260508043908 4 17 0.0 0.0 0.00 0.00 0.00 83 1016.9
20260508043406 4 17 0.0 0.0 0.00 0.00 0.00 83 1016.7
20260508042902 4 17 0.0 0.0 0.00 0.00 0.00 82 1016.8
20260508042400 5 17 0.0 0.0 0.00 0.00 0.00 82 1016.9
20260508041856 5 17 0.0 0.0 0.00 0.00 0.00 82 1016.6
20260508041353 5 17 0.0 0.0 0.00 0.00 0.00 82 1016.8
20260508040849 5 17 0.0 0.0 0.00 0.00 0.00 81 1016.5
20260508040347 5 17 0.0 0.0 0.00 0.00 0.00 81 1016.5
20260508035844 5 17 0.0 1.6 0.00 0.00 0.00 81 1016.6
20260508035341 5 17 0.0 0.0 0.00 0.00 0.00 80 1016.5
20260508034838 5 17 0.0 0.0 0.00 0.00 0.00 80 1016.5
20260508034336 5 17 1.6 1.6 0.00 0.00 0.00 79 1016.3
20260508033832 6 16 0.0 0.0 0.00 0.00 0.00 79 1016.3
20260508033330 6 16 0.0 1.6 0.00 0.00 0.00 79 1016.4
20260508032828 6 16 0.0 0.0 0.00 0.00 0.00 78 1016.5
20260508032325 5 16 0.0 0.0 0.00 0.00 0.00 78 1016.4
20260508031821 6 16 0.0 0.0 0.00 0.00 0.00 77 1016.4
20260508031318 6 16 0.0 1.6 0.00 0.00 0.00 77 1016.5
20260508030814 6 16 0.0 1.6 0.00 0.00 0.00 77 1016.4
20260508030312 6 16 1.6 1.6 0.00 0.00 0.00 76 1016.6
20260508025808 6 16 0.0 0.0 0.00 0.00 0.00 75 1016.6
20260508025306 6 16 0.0 1.6 0.00 0.00 0.00 75 1016.5
20260508024802 7 16 0.0 1.6 0.00 0.00 0.00 75 1016.5
20260508024259 7 16 0.0 3.2 0.00 0.00 0.00 75 1016.5
20260508023756 6 11 1.6 3.2 0.00 0.00 0.00 75 1016.5
20260508023252 7 357 0.0 0.0 0.00 0.00 0.00 74 1016.4
20260508022748 7 352 0.0 1.6 0.00 0.00 0.00 74 1016.5
20260508022245 7 349 0.0 0.0 0.00 0.00 0.00 73 1016.3
20260508021742 7 349 0.0 1.6 0.00 0.00 0.00 73 1016.3
20260508021237 7 348 0.0 1.6 0.00 0.00 0.00 73 1016.1
20260508020734 8 347 1.6 3.2 0.00 0.00 0.00 71 1016.3
20260508020232 8 17 1.6 3.2 0.00 0.00 0.00 71 1016.1
20260508015729 8 27 0.0 0.0 0.00 0.00 0.00 70 1015.8
20260508015226 8 26 1.6 1.6 0.00 0.00 0.00 69 1015.9
20260508014723 8 17 0.0 0.0 0.00 0.00 0.00 68 1015.8
20260508014220 8 11 0.0 0.0 0.00 0.00 0.00 68 1015.7
20260508013715 8 3 0.0 0.0 0.00 0.00 0.00 68 1015.5
20260508013212 8 3 0.0 0.0 0.00 0.00 0.00 67 1015.6
20260508012710 8 3 0.0 0.0 0.00 0.00 0.00 67 1015.6
20260508012206 8 3 0.0 1.6 0.00 0.00 0.00 66 1015.6
20260508011705 8 3 0.0 0.0 0.00 0.00 0.00 65 1015.5
20260508011202 8 3 0.0 0.0 0.00 0.00 0.00 63 1015.4
20260508010659 9 3 0.0 0.0 0.00 0.00 0.00 62 1015.5
20260508010156 9 3 0.0 0.0 0.00 0.00 0.00 60 1015.4
20260508005653 10 3 0.0 0.0 0.00 0.00 0.00 58 1015.1
20260508005150 10 3 0.0 0.0 0.00 0.00 0.00 56 1015.2
20260508004646 10 3 0.0 0.0 0.00 0.00 0.00 54 1015.1
20260508004142 11 2 0.0 0.0 0.00 0.00 0.00 54 1015.2
20260508003639 11 3 0.0 0.0 0.00 0.00 0.00 53 1015.1
20260508003136 11 49 0.0 0.0 0.00 0.00 0.00 51 1014.9
20260508002632 12 49 0.0 1.6 0.00 0.00 0.00 50 1015.0
20260508002131 12 50 0.0 1.6 0.00 0.00 0.00 50 1014.8
20260508001625 12 331 1.6 1.6 0.00 0.00 0.00 50 1014.8
20260508001122 12 314 1.6 6.4 0.00 0.00 0.00 47 1014.8
20260508000618 13 357 0.0 3.2 0.00 0.00 0.00 48 1014.6
20260508000116 13 325 1.6 3.2 0.00 0.00 0.00 47 1014.8
20260507235612 13 319 4.8 6.4 0.00 0.00 0.00 46 1014.5
20260507235110 13 350 0.0 1.6 0.00 0.00 0.00 47 1014.5
20260507234606 14 294 0.0 0.0 0.00 0.00 0.00 44 1014.2
20260507234102 14 306 1.6 4.8 0.00 0.00 0.00 44 1014.4
20260507233559 14 340 1.6 4.8 0.00 0.00 0.00 43 1014.3
20260507233058 15 262 3.2 9.7 0.00 0.00 0.00 42 1014.3
20260507232553 14 288 3.2 6.4 0.00 0.00 0.00 41 1014.2
20260507232051 15 313 1.6 6.4 0.00 0.00 0.00 40 1013.9
20260507231547 15 338 3.2 9.7 0.00 0.00 0.00 40 1014.0
20260507231045 15 293 0.0 3.2 0.00 0.00 0.00 41 1014.0
20260507230541 15 313 0.0 1.6 0.00 0.00 0.00 39 1014.0
20260507230038 15 331 8.0 11.3 0.00 0.00 0.00 38 1013.9
20260507225533 15 319 3.2 9.7 0.00 0.00 0.00 38 1013.9
20260507225030 16 324 3.2 4.8 0.00 0.00 0.00 38 1013.8
20260507224526 16 343 3.2 4.8 0.00 0.00 0.00 39 1013.7
20260507224022 16 319 1.6 3.2 0.00 0.00 0.00 41 1013.9
20260507223518 16 316 1.6 3.2 0.00 0.00 0.00 39 1013.7
20260507223016 16 317 0.0 0.0 0.00 0.00 0.00 40 1013.5
20260507222513 16 230 1.6 9.7 0.00 0.00 0.00 41 1013.6
20260507222009 16 284 1.6 3.2 0.00 0.00 0.00 39 1013.7
20260507221506 17 333 6.4 9.7 0.00 0.00 0.00 37 1013.3
20260507221002 17 340 0.0 1.6 0.00 0.00 0.00 39 1013.4
20260507220500 17 263 0.0 3.2 0.00 0.00 0.00 40 1013.2
20260507215956 16 239 3.2 3.2 0.00 0.00 0.00 41 1013.1
20260507215453 17 350 1.6 4.8 0.00 0.00 0.00 41 1013.1
20260507214951 16 347 1.6 6.4 0.00 0.00 0.00 40 1013.2
20260507214448 16 316 1.6 3.2 0.00 0.00 0.00 40 1013.2
20260507213943 17 267 3.2 4.8 0.00 0.00 0.00 39 1013.2
20260507213440 17 213 4.8 9.7 0.00 0.00 0.00 36 1012.9
20260507212937 17 315 4.8 6.4 0.00 0.00 0.00 38 1012.8
20260507212432 16 318 4.8 9.7 0.00 0.00 0.00 38 1013.1
20260507211930 17 250 3.2 3.2 0.00 0.00 0.00 40 1012.9
20260507211426 16 54 1.6 4.8 0.00 0.00 0.00 41 1012.8
20260507210923 17 350 4.8 9.7 0.00 0.00 0.00 40 1012.7
20260507210420 17 321 9.7 14.5 0.00 0.00 0.00 38 1012.9
20260507205917 16 219 1.6 3.2 0.00 0.00 0.00 42 1012.8
20260507205414 16 349 4.8 12.9 0.00 0.00 0.00 37 1012.7
20260507204910 16 268 3.2 9.7 0.00 0.00 0.00 37 1012.8
20260507204406 17 184 0.0 12.9 0.00 0.00 0.00 37 1012.7
20260507203904 17 299 4.8 6.4 0.00 0.00 0.00 37 1012.6
20260507203402 17 13 9.7 16.1 0.00 0.00 0.00 38 1012.6
20260507202858 17 342 4.8 6.4 0.00 0.00 0.00 40 1012.6
20260507202355 17 318 1.6 4.8 0.00 0.00 0.00 40 1012.6
20260507201850 17 239 9.7 11.3 0.00 0.00 0.00 39 1012.7
20260507201346 16 359 1.6 4.8 0.00 0.00 0.00 39 1012.6
20260507200842 16 24 9.7 14.5 0.00 0.00 0.00 39 1013.0
20260507200338 16 333 3.2 9.7 0.00 0.00 0.00 39 1013.1
20260507195835 17 327 1.6 9.7 0.00 0.00 0.00 38 1013.0
20260507195332 17 266 1.6 4.8 0.00 0.00 0.00 38 1012.9
20260507194829 17 307 1.6 9.7 0.00 0.00 0.00 38 1013.0
20260507194325 17 312 3.2 4.8 0.00 0.00 0.00 36 1013.1
20260507193822 17 70 1.6 3.2 0.00 0.00 0.00 39 1013.2
20260507193320 16 327 4.8 9.7 0.00 0.00 0.00 39 1013.2
20260507192815 17 129 4.8 6.4 0.00 0.00 0.00 39 1013.2
20260507192312 17 273 1.6 12.9 0.00 0.00 0.00 38 1013.4
20260507191808 18 279 4.8 9.7 0.00 0.00 0.00 42 1013.4
20260507191305 17 320 4.8 4.8 0.00 0.00 0.00 37 1013.5
20260507190802 18 359 3.2 6.4 0.00 0.00 0.00 36 1013.3
20260507190300 18 217 0.0 1.6 0.00 0.00 0.00 41 1013.5
20260507185758 17 287 3.2 6.4 0.00 0.00 0.00 40 1013.3
20260507185255 17 293 3.2 6.4 0.00 0.00 0.00 38 1013.4
20260507184752 17 49 1.6 11.3 0.00 0.00 0.00 38 1013.4
20260507184250 17 313 6.4 14.5 0.00 0.00 0.00 37 1013.3
20260507183747 18 243 3.2 6.4 0.00 0.00 0.00 40 1013.4
20260507183244 17 57 3.2 6.4 0.00 0.00 0.00 39 1013.3
20260507182741 17 291 1.6 6.4 0.00 0.00 0.00 39 1013.7
20260507182236 17 297 1.6 11.3 0.00 0.00 0.00 40 1013.7
20260507181733 17 308 3.2 3.2 0.00 0.00 0.00 42 1013.5
20260507181229 17 354 1.6 4.8 0.00 0.00 0.00 46 1013.4
20260507180726 17 240 1.6 4.8 0.00 0.00 0.00 41 1013.6
20260507180223 17 288 1.6 6.4 0.00 0.00 0.00 43 1013.9
20260507175718 16 341 1.6 4.8 0.00 0.00 0.00 43 1013.6
20260507175216 17 275 1.6 3.2 0.00 0.00 0.00 41 1013.6
20260507174713 16 326 1.6 3.2 0.00 0.00 0.00 41 1013.8
20260507174211 16 119 3.2 4.8 0.00 0.00 0.00 41 1013.8
20260507173708 16 284 0.0 3.2 0.00 0.00 0.00 44 1013.9
20260507173205 16 19 3.2 11.3 0.00 0.00 0.00 43 1013.9
20260507172702 16 226 1.6 3.2 0.00 0.00 0.00 46 1014.0
20260507172159 16 219 0.0 4.8 0.00 0.00 0.00 43 1013.9
20260507171658 16 304 0.0 3.2 0.00 0.00 0.00 45 1013.9
20260507171156 16 240 4.8 4.8 0.00 0.00 0.00 45 1014.2
20260507170653 15 296 1.6 3.2 0.00 0.00 0.00 49 1014.2
20260507170150 15 286 1.6 1.6 0.00 0.00 0.00 48 1014.3
20260507165645 15 333 1.6 4.8 0.00 0.00 0.00 46 1014.3
20260507165142 15 282 0.0 1.6 0.00 0.00 0.00 47 1014.8
20260507164638 15 254 0.0 4.8 0.00 0.00 0.00 47 1014.6
20260507164135 15 331 0.0 3.2 0.00 0.00 0.00 47 1014.3
20260507163632 15 315 0.0 6.4 0.00 0.00 0.00 48 1014.5
20260507163130 16 319 4.8 6.4 0.00 0.00 0.00 49 1014.5
20260507162626 15 329 1.6 4.8 0.00 0.00 0.00 48 1014.4
20260507162122 15 288 3.2 3.2 0.00 0.00 0.00 48 1014.6
20260507161618 15 175 3.2 14.5 0.00 0.00 0.00 45 1014.5
20260507161115 15 160 1.6 3.2 0.00 0.00 0.00 48 1014.7
20260507160612 15 267 3.2 4.8 0.00 0.00 0.00 48 1014.7
20260507160108 15 292 1.6 6.4 0.00 0.00 0.00 48 1014.8
20260507155603 14 296 1.6 3.2 0.00 0.00 0.00 50 1014.8
20260507155101 15 179 4.8 14.5 0.00 0.00 0.00 46 1014.7
20260507154557 15 256 4.8 9.7 0.00 0.00 0.00 48 1014.9
20260507154055 15 39 6.4 9.7 0.00 0.00 0.00 48 1014.7
20260507153551 15 93 1.6 4.8 0.00 0.00 0.00 49 1014.7
20260507153048 14 262 3.2 6.4 0.00 0.00 0.00 48 1014.9
20260507152543 15 280 3.2 4.8 0.00 0.00 0.00 50 1014.9
20260507152040 14 215 3.2 9.7 0.00 0.00 0.00 52 1014.9
20260507151536 14 24 0.0 3.2 0.00 0.00 0.00 54 1014.8
20260507151033 13 349 0.0 1.6 0.00 0.00 0.00 54 1015.1
20260507150530 13 10 0.0 11.3 0.00 0.00 0.00 52 1015.0
20260507150027 14 12 3.2 4.8 0.00 0.00 0.00 54 1015.0
20260507145522 13 173 6.4 9.7 0.00 0.00 0.00 51 1015.1
20260507145020 13 126 6.4 12.9 0.00 0.00 0.00 54 1015.2
20260507144516 13 228 3.2 6.4 0.00 0.00 0.00 56 1015.4
20260507144014 13 284 1.6 4.8 0.00 0.00 0.00 57 1015.5
20260507143511 13 212 3.2 9.7 0.00 0.00 0.00 58 1015.4
20260507143008 13 99 3.2 12.9 0.00 0.00 0.00 61 1015.5
20260507142503 13 193 6.4 9.7 0.00 0.00 0.00 61 1015.7
20260507142001 13 261 0.0 1.6 0.00 0.00 0.00 63 1015.7
20260507141456 13 254 3.2 4.8 0.00 0.00 0.00 64 1015.6
20260507140953 13 144 3.2 6.4 0.00 0.00 0.00 65 1015.8
20260507140450 13 100 4.8 4.8 0.00 0.00 0.00 66 1015.9
20260507135948 12 173 1.6 9.7 0.00 0.00 0.00 68 1016.0
20260507135444 12 142 4.8 12.9 0.00 0.00 0.00 70 1016.0
20260507134942 12 129 3.2 6.4 0.00 0.00 0.00 74 1016.1
20260507134438 11 178 3.2 9.7 0.00 0.00 0.00 77 1016.4
20260507133934 11 156 3.2 4.8 0.00 0.00 0.00 80 1016.1
20260507133430 11 113 3.2 11.3 0.00 0.00 0.00 83 1016.3
20260507132929 10 124 4.8 9.7 0.00 0.00 0.00 86 1016.3
20260507132425 10 136 3.2 6.4 0.00 0.00 0.00 87 1016.2
20260507131921 9 85 6.4 11.3 0.00 0.00 0.00 89 1016.4
20260507131418 9 112 4.8 12.9 0.00 0.00 0.00 90 1016.3
20260507130915 9 116 0.0 11.3 0.00 0.00 0.00 91 1016.4
20260507130412 8 127 4.8 9.7 0.00 0.00 0.00 92 1016.5
20260507125911 8 116 4.8 6.4 0.00 0.00 0.00 92 1016.4
20260507125409 8 129 4.8 9.7 0.00 0.00 0.00 93 1016.5
20260507124906 7 93 4.8 6.4 0.00 0.00 0.00 93 1016.2
20260507124402 7 105 3.2 6.4 0.00 0.00 0.00 94 1016.3
20260507123901 7 104 6.4 6.4 0.00 0.00 0.00 94 1016.5
20260507123357 7 117 4.8 6.4 0.00 0.00 0.00 94 1016.4
20260507122853 6 114 3.2 6.4 0.00 0.00 0.00 94 1016.5
20260507122349 6 105 4.8 6.4 0.00 0.00 0.00 94 1016.5
20260507121845 6 118 4.8 9.7 0.00 0.00 0.00 94 1016.4
20260507121341 6 111 6.4 9.7 0.00 0.00 0.00 94 1016.4
20260507120838 6 113 4.8 4.8 0.00 0.00 0.00 95 1016.4
20260507120334 6 135 1.6 4.8 0.00 0.00 0.00 95 1016.5
20260507115831 5 102 1.6 6.4 0.00 0.00 0.00 95 1016.6
20260507115326 5 123 3.2 4.8 0.00 0.00 0.00 95 1016.5
20260507114822 5 115 4.8 4.8 0.00 0.00 0.00 95 1016.4
20260507114320 5 125 3.2 4.8 0.00 0.00 0.00 95 1016.7
20260507113817 5 131 1.6 4.8 0.00 0.00 0.00 95 1016.5
20260507113314 5 114 4.8 6.4 0.00 0.00 0.00 95 1016.5
20260507112811 5 115 3.2 4.8 0.00 0.00 0.00 95 1016.5
20260507112308 4 62 0.0 0.0 0.00 0.00 0.00 95 1016.3
20260507111806 4 23 0.0 0.0 0.00 0.00 0.00 95 1016.4
20260507111302 3 23 0.0 0.0 0.00 0.00 0.00 95 1016.3
20260507110758 3 23 0.0 0.0 0.00 0.00 0.00 95 1016.3
20260507110255 3 23 0.0 0.0 0.00 0.00 0.00 95 1016.2
20260507105752 3 23 0.0 0.0 0.00 0.00 0.00 95 1016.1
20260507105248 3 23 0.0 0.0 0.00 0.00 0.00 95 1016.0
20260507104745 3 23 0.0 0.0 0.00 0.00 0.00 95 1016.1
20260507104242 3 23 0.0 0.0 0.00 0.00 0.00 94 1016.1
20260507103738 3 23 0.0 0.0 0.00 0.00 0.00 94 1016.1
20260507103234 3 23 0.0 0.0 0.00 0.00 0.00 94 1016.0
20260507102731 3 23 0.0 0.0 0.00 0.00 0.00 94 1015.9
20260507102227 3 23 0.0 0.0 0.00 0.00 0.00 94 1016.0
20260507101723 3 23 0.0 0.0 0.00 0.00 0.00 94 1016.0
20260507101219 3 23 0.0 0.0 0.00 0.00 0.00 94 1016.1
20260507100716 3 23 0.0 0.0 0.00 0.00 0.00 94 1016.0
20260507100215 3 23 0.0 0.0 0.00 0.00 0.00 94 1016.0
20260507095712 3 23 0.0 0.0 0.00 0.00 0.00 94 1015.9
20260507095208 3 23 0.0 0.0 0.00 0.00 0.00 94 1015.8
20260507094705 3 23 0.0 0.0 0.00 0.00 0.00 93 1015.7
20260507094202 3 25 0.0 0.0 0.00 0.00 0.00 93 1015.9
20260507093659 3 26 0.0 0.0 0.00 0.00 0.00 93 1015.8
20260507093158 3 26 0.0 0.0 0.00 0.00 0.00 93 1015.7
20260507092654 3 27 0.0 0.0 0.00 0.00 0.00 93 1015.7
20260507092151 3 27 0.0 0.0 0.00 0.00 0.00 93 1015.7
20260507091647 4 27 0.0 0.0 0.00 0.00 0.00 93 1015.8
20260507091144 4 27 0.0 0.0 0.00 0.00 0.00 93 1015.7
20260507090639 3 30 0.0 0.0 0.00 0.00 0.00 93 1015.7
20260507090137 4 30 0.0 0.0 0.00 0.00 0.00 93 1015.7
20260507085634 4 30 0.0 0.0 0.00 0.00 0.00 92 1015.8
20260507085130 4 30 0.0 0.0 0.00 0.00 0.00 92 1015.9
20260507084627 4 32 0.0 0.0 0.00 0.00 0.00 92 1015.6
20260507084124 4 33 0.0 0.0 0.00 0.00 0.00 92 1015.9
20260507083621 4 33 0.0 0.0 0.00 0.00 0.00 92 1016.0
20260507083118 4 33 0.0 0.0 0.00 0.00 0.00 92 1016.0
20260507082613 4 33 0.0 0.0 0.00 0.00 0.00 92 1016.0
20260507082110 5 33 0.0 0.0 0.00 0.00 0.00 91 1016.0
20260507081607 5 33 0.0 0.0 0.00 0.00 0.00 91 1015.8
20260507081103 5 33 0.0 0.0 0.00 0.00 0.00 91 1015.8
20260507080559 5 33 0.0 0.0 0.00 0.00 0.00 91 1015.7
20260507080056 5 33 0.0 0.0 0.00 0.00 0.00 91 1015.8
20260507075551 5 33 0.0 0.0 0.00 0.00 0.00 91 1015.9
20260507075048 5 34 0.0 0.0 0.00 0.00 0.00 90 1015.7
20260507074544 5 34 0.0 0.0 0.00 0.00 0.00 90 1015.6
20260507074043 5 34 0.0 0.0 0.00 0.00 0.00 90 1015.7
20260507073539 5 34 0.0 0.0 0.00 0.00 0.00 90 1015.8